RH
18 15 13 12 12 11 11 10 9 9 8 7 6 6 5 5 4 4 4 3 3 3 2 3 3 3 5 5 5 5 4 4 4 4 4 4 5 5 6 7 9 11 14 17 20 22 22 22 21 20 21 20 20 20 18 16 12 8 6 6 6 6 5 6 6 6 8 9 10 10 11 13 15 18 22 25 27 29 29 30 30 28 27 34 36 26 17
15 13 13 12 11 11 10 9 8 7 6 6 5 5 4 4 4 3 3 3 3 3 3 4 4 5 5 5 5 4 4 4 4 4 5 6 7 9 11 14 16 18 20 20 21 21 19 20 20 18 19 20 19 17 14 11 9 6 6 6 7 7 7 7 7 9 10 10 10 11 10 12 15 18 24 27 30 33 32 31 33 34 36 39 37 30 26
13 12 12 11 10 10 8 8 7 6 6 5 5 5 4 4 4 3 3 3 3 4 4 5 6 5 5 5 4 4 4 5 6 7 9 11 13 14 16 17 18 19 20 20 20 19 17 17 17 16 16 16 15 13 10 8 7 6 6 6 7 8 9 10 11 13 15 16 18 18 15 15 16 19 23 27 32 36 33 31 34 40 44 41 36 37 37
13 11 11 10 9 8 7 7 6 5 5 5 4 4 4 4 3 3 4 4 5 6 6 5 5 5 5 4 4 5 6 8 9 10 11 12 12 13 14 15 16 17 19 18 18 17 15 14 13 13 13 12 11 10 9 7 6 6 6 7 7 9 11 13 14 16 19 21 21 22 22 20 21 22 22 24 30 32 30 31 37 45 50 42 36 45 47
12 10 10 9 8 7 7 6 6 5 5 5 4 4 4 4 4 4 5 6 6 6 6 5 5 5 4 4 5 6 7 7 7 7 7 8 7 9 11 12 12 13 13 13 13 13 12 13 11 10 10 11 10 8 7 7 7 7 7 8 9 11 13 14 14 15 18 20 20 21 23 22 23 26 25 25 27 27 28 32 38 47 52 45 40 47 48
11 9 9 8 7 7 6 5 5 5 4 4 4 3 4 5 6 6 6 6 6 5 5 5 5 4 4 5 5 6 5 4 4 4 4 5 5 7 9 8 8 8 7 7 7 7 8 9 8 7 7 8 7 7 6 7 8 8 9 11 12 13 14 14 13 12 16 19 20 21 22 21 23 27 29 29 26 24 27 31 36 45 50 48 45 46 47
10 9 8 8 7 6 5 5 5 4 4 4 4 5 6 6 7 7 6 6 5 5 5 4 4 4 5 5 4 4 3 3 3 3 3 4 5 6 7 6 5 5 5 4 4 4 5 5 5 5 5 5 5 6 7 8 10 11 13 14 15 15 14 14 12 11 14 19 20 20 20 20 21 26 31 29 24 22 27 31 36 43 45 43 44 43 43
9 9 8 7 6 5 5 4 4 4 4 4 4 6 7 7 6 6 6 5 5 5 4 4 4 4 4 4 3 3 3 2 2 3 3 4 4 5 5 4 4 4 4 4 4 4 4 4 4 4 5 5 5 7 9 10 12 15 16 16 16 14 14 15 14 11 13 18 18 17 18 18 21 26 28 24 21 22 27 32 37 38 37 38 40 39 39
9 8 7 6 5 5 4 4 4 4 5 5 6 7 7 7 6 6 5 5 5 4 4 4 4 4 3 3 3 2 2 2 2 3 3 3 3 4 4 4 4 3 3 4 4 4 4 4 4 5 5 6 8 10 12 13 15 16 16 16 16 15 15 17 16 12 12 16 15 13 13 15 19 23 22 21 23 28 31 34 35 34 35 37 37 36 37
8 7 6 5 5 5 4 4 5 5 6 6 7 7 7 6 6 6 5 5 4 4 4 4 4 3 3 3 2 2 2 2 3 3 3 3 3 3 3 3 3 3 4 4 4 4 4 4 5 6 7 9 11 14 15 16 17 16 15 15 16 17 18 19 19 15 12 14 13 11 12 14 17 20 22 24 29 31 32 32 33 33 35 36 37 40 43
7 6 6 5 5 5 5 5 6 6 7 7 7 6 7 6 6 5 5 4 4 5 4 3 3 3 3 3 2 3 3 3 3 3 3 3 3 3 3 3 4 4 4 4 4 4 5 5 6 8 10 12 14 16 17 18 17 16 17 17 17 19 20 20 21 19 14 14 14 12 12 15 19 20 22 26 30 31 32 33 34 35 37 40 44 49 56
6 6 5 5 5 5 5 6 7 7 7 7 7 7 6 6 5 4 4 4 5 4 3 3 3 3 3 3 3 3 3 3 3 3 3 3 3 3 3 4 4 4 4 5 5 5 6 6 8 10 12 13 15 16 17 17 17 18 19 19 19 21 22 21 21 21 18 17 18 16 15 17 19 18 19 24 26 28 31 34 35 38 42 47 51 60 75
6 6 5 6 6 6 7 7 7 7 7 7 7 6 6 5 5 4 4 5 5 4 3 3 3 3 3 3 3 3 3 4 3 3 4 4 4 4 4 4 5 5 5 5 5 6 6 7 9 11 12 13 15 16 17 16 18 20 21 21 22 22 23 21 21 22 22 21 21 21 19 17 17 17 18 21 23 26 32 37 39 43 49 56 64 78 93
6 6 6 7 7 7 8 8 7 7 7 7 6 6 5 5 4 4 6 5 4 3 3 3 3 4 4 3 4 4 4 4 4 4 4 4 4 5 5 5 5 5 6 6 6 7 7 8 9 10 11 12 14 17 17 17 19 21 22 22 22 23 23 23 22 24 26 26 24 22 20 18 17 17 18 21 26 32 42 47 46 49 60 73 85 93 99
7 7 7 8 8 8 8 7 8 7 7 7 6 5 5 4 4 6 6 5 3 3 3 3 3 4 4 4 4 4 4 5 5 5 5 5 5 5 5 6 6 6 6 6 7 8 8 9 10 11 12 14 16 19 18 18 20 22 22 21 22 22 23 24 24 25 27 29 25 23 25 23 19 19 21 23 29 36 45 52 50 52 66 82 92 96 95
8 8 8 8 8 8 8 8 8 7 6 6 5 5 5 4 5 7 6 4 3 3 3 3 3 4 4 4 4 4 5 5 5 5 5 5 6 6 6 6 6 7 7 8 9 10 10 11 13 13 16 19 21 21 20 20 22 22 21 21 22 23 23 24 26 26 27 29 26 26 29 26 22 24 24 25 31 36 44 51 47 45 58 72 80 80 71
9 9 9 9 8 8 8 8 7 7 6 6 5 5 5 5 8 9 6 3 3 3 3 3 4 4 4 4 4 4 5 5 5 6 6 6 6 6 6 7 7 8 9 10 11 12 13 14 15 16 21 24 24 23 23 24 25 24 23 22 23 24 25 25 27 26 25 27 25 25 29 27 25 28 28 29 32 35 43 54 52 50 59 63 60 53 43
9 9 9 9 9 9 8 7 7 6 6 5 5 5 6 8 10 8 5 4 3 3 4 4 4 5 4 4 5 4 5 5 5 6 6 6 7 7 7 8 9 10 12 13 13 14 16 18 18 20 24 25 25 25 26 28 29 28 26 25 25 26 26 26 27 26 24 26 26 26 29 28 27 31 32 31 31 34 50 71 74 68 63 53 42 36 29
10 9 10 9 9 9 8 7 6 6 6 5 5 6 8 10 9 7 4 4 4 4 4 4 5 5 4 5 5 5 5 5 5 6 7 7 8 8 9 10 11 13 14 15 17 18 19 21 23 25 27 26 26 28 28 29 32 30 27 28 28 28 27 26 27 26 24 26 27 27 28 27 27 31 31 30 40 58 77 87 80 64 51 39 32 27 23
10 10 10 10 9 8 7 7 6 6 6 5 6 8 10 10 8 6 5 5 5 5 5 5 5 5 4 4 4 5 5 5 6 7 8 9 10 10 11 13 14 15 17 19 21 21 21 24 27 29 30 27 28 31 29 26 29 30 29 29 30 30 29 27 26 26 24 25 28 28 29 29 29 34 37 41 57 76 82 76 62 46 36 30 25 21 20
9 10 10 9 9 8 7 7 7 6 6 6 7 10 11 11 9 7 6 6 6 7 6 6 5 5 5 5 5 5 6 6 7 8 9 11 12 13 14 16 17 19 21 23 24 24 26 30 31 31 31 30 30 34 31 26 26 27 29 30 29 29 29 27 25 27 26 27 28 28 29 31 32 38 44 47 50 53 52 48 42 32 26 23 20 19 20
9 10 10 9 8 8 7 8 7 7 7 7 9 12 12 11 10 9 9 8 8 7 7 7 7 6 6 7 7 7 8 8 9 11 11 13 15 16 19 21 23 25 27 27 28 30 32 34 33 32 33 32 31 33 31 28 28 27 27 30 29 28 28 27 26 27 26 26 27 25 25 28 29 32 35 34 32 32 33 34 31 24 21 19 19 20 19
9 9 9 9 8 8 8 9 9 8 8 8 10 12 12 12 11 10 10 10 9 9 8 9 9 9 9 10 10 10 11 11 12 13 15 16 19 20 23 25 28 30 31 31 33 35 35 35 33 33 35 34 32 32 30 28 29 28 26 27 28 27 26 24 23 22 20 20 22 21 21 23 24 25 26 26 26 29 30 28 24 20 19 19 20 21 19
9 9 8 8 9 9 10 10 10 10 9 10 11 13 13 13 12 11 12 12 11 11 11 11 12 13 14 14 13 13 13 13 14 16 18 19 22 24 26 28 30 32 33 35 37 37 36 35 34 35 36 35 32 32 31 29 29 28 26 26 25 24 23 20 18 18 18 19 21 21 21 21 22 23 24 25 28 29 26 22 19 18 18 18 19 19 22
8 9 9 9 10 11 11 12 12 12 12 12 13 14 14 13 13 13 14 14 13 13 14 15 15 16 17 17 16 15 15 15 17 19 21 23 25 26 29 31 32 33 35 37 38 37 35 36 37 37 35 33 31 31 32 31 30 29 28 26 25 22 20 18 17 17 19 20 22 22 22 21 22 23 24 26 26 24 21 18 16 16 16 16 16 19 29
8 9 9 10 11 12 12 13 14 14 14 13 14 16 16 15 15 14 14 15 15 16 17 18 19 19 19 18 17 17 17 18 20 22 24 26 27 29 32 33 33 34 37 38 37 37 37 38 39 37 33 31 30 31 32 30 29 28 27 26 25 22 20 19 19 19 20 22 23 23 23 22 23 24 25 26 24 20 16 15 15 15 15 14 18 29 42
8 9 10 11 13 13 13 15 18 18 17 16 17 19 19 17 17 16 16 16 17 18 19 20 21 22 22 21 20 19 19 20 22 24 26 28 30 32 33 33 33 35 37 38 37 38 39 39 38 35 31 30 30 31 30 28 27 27 26 25 23 22 20 20 21 22 23 24 25 27 28 27 27 27 26 24 20 16 15 14 14 14 14 16 27 42 53
8 9 11 12 13 13 15 18 21 20 19 19 20 22 21 20 19 19 19 19 19 21 22 24 25 25 24 24 23 21 20 22 23 25 27 29 31 33 33 33 35 37 38 38 38 39 40 39 36 32 30 29 29 29 28 27 26 26 25 23 22 21 21 23 26 27 27 27 27 29 30 30 28 26 23 19 16 15 15 15 16 16 17 24 38 50 58
8 10 13 13 13 15 18 22 23 22 22 22 23 24 23 22 21 22 22 23 23 24 25 26 26 26 26 26 25 23 22 24 25 26 29 31 34 35 34 35 38 40 39 39 40 40 39 36 33 31 30 29 29 27 27 26 25 25 24 22 22 22 23 26 29 29 28 28 28 28 29 28 26 22 18 16 15 15 17 19 20 21 25 33 46 54 60
10 12 13 13 14 17 22 24 24 24 26 26 26 26 25 24 23 23 25 26 27 27 27 27 27 27 26 27 26 25 25 26 27 29 32 34 36 37 38 40 42 41 40 41 42 41 38 34 32 30 29 29 28 27 26 26 25 24 23 22 22 23 25 27 29 28 28 28 27 26 25 24 21 17 14 13 14 15 18 22 25 29 35 43 51 57 62
11 14 14 13 15 20 24 25 25 26 28 27 26 26 25 25 24 24 25 28 29 29 30 29 28 27 28 28 27 26 27 28 29 30 33 36 38 41 43 43 43 42 42 42 41 39 36 32 30 30 29 29 28 27 26 26 25 24 23 22 23 24 26 27 28 28 28 28 26 24 22 19 16 14 12 11 12 15 19 24 30 36 44 50 55 61 68
12 14 13 13 16 21 24 24 25 26 26 25 25 25 24 24 24 24 25 28 31 31 31 30 29 29 30 31 31 29 28 30 32 34 36 38 41 44 44 44 43 43 43 42 40 37 34 31 30 29 28 28 28 27 27 26 25 25 24 23 24 26 27 27 27 27 27 26 25 22 20 17 14 13 12 11 13 18 23 29 36 43 49 55 60 67 74
13 14 13 13 16 21 23 24 25 25 23 21 22 23 23 23 24 24 25 29 32 33 33 32 31 31 32 33 33 32 31 32 34 37 39 41 41 43 44 43 43 43 42 40 38 34 32 30 29 28 28 27 27 27 27 27 27 26 25 25 27 28 27 27 27 27 26 25 23 20 18 15 12 12 11 10 14 22 30 36 41 47 52 58 65 71 70
14 14 13 13 16 19 21 23 23 22 20 19 19 20 22 23 23 24 27 31 34 35 35 34 34 35 36 38 38 36 35 34 33 35 39 41 41 41 42 43 43 43 41 38 36 33 31 30 29 28 28 27 28 28 28 28 28 27 27 28 29 29 28 27 27 27 26 24 21 18 15 12 11 10 8 9 15 26 34 39 45 51 55 61 68 70 64
14 14 13 13 15 17 19 20 20 19 17 17 17 18 20 22 22 23 28 33 37 39 38 37 36 37 39 41 41 39 37 36 35 36 39 41 42 42 42 42 43 41 38 36 34 33 31 30 29 28 28 29 29 30 30 29 27 26 28 30 31 31 31 30 28 27 25 23 20 16 12 10 9 9 9 12 21 31 37 41 48 55 59 64 69 66 57
14 14 13 13 15 16 17 18 18 17 16 16 16 17 19 21 20 22 28 35 40 41 41 39 38 38 37 36 36 36 35 36 37 39 40 42 43 42 41 41 41 39 36 35 34 33 32 31 29 29 30 30 31 32 31 29 28 29 31 33 33 34 34 32 30 28 25 21 18 15 11 8 8 8 11 17 27 34 39 44 52 58 60 66 69 62 51
14 14 13 14 14 15 15 15 16 17 17 16 16 17 18 19 19 21 27 36 41 43 42 41 41 42 39 35 34 34 35 37 39 40 40 42 42 41 40 39 39 37 35 35 34 33 32 32 31 30 31 32 33 32 31 30 31 33 35 35 36 36 35 33 30 28 24 21 17 13 10 7 6 7 12 20 29 36 41 48 57 63 66 71 71 62 51
15 14 13 13 13 13 14 15 15 17 18 17 17 17 17 17 18 20 26 36 42 44 44 43 44 46 44 40 37 36 37 40 42 41 41 41 42 41 39 38 37 36 35 35 35 33 33 33 32 31 32 33 33 32 31 31 34 36 37 37 37 37 34 31 30 27 23 19 15 12 10 8 6 9 17 24 31 38 45 51 59 66 70 72 70 62 54
15 14 13 13 13 13 13 14 16 18 19 19 18 17 15 16 18 20 26 34 41 44 45 45 45 47 46 44 41 40 41 43 44 44 43 42 41 40 40 39 38 38 37 36 35 34 34 34 33 33 34 35 34 32 32 33 35 37 37 37 37 35 33 31 30 27 23 18 14 11 10 9 10 18 29 34 36 42 48 52 58 66 71 71 71 66 60
15 14 13 12 12 13 13 14 16 19 20 20 19 16 14 15 17 20 25 31 38 43 45 44 45 45 44 41 41 43 44 44 44 43 43 43 42 43 43 41 40 39 38 37 37 36 36 36 35 35 36 36 34 33 34 35 36 37 37 36 35 34 32 31 29 26 22 18 13 10 9 8 13 27 43 49 48 50 54 56 61 71 77 79 77 72 64
15 15 13 12 12 13 13 15 17 20 21 21 19 16 14 15 17 20 24 28 35 41 44 44 46 48 46 43 43 45 47 46 44 43 43 43 43 44 44 43 42 41 40 40 39 38 38 37 37 37 38 36 35 35 35 35 36 36 36 36 35 33 32 30 28 25 22 17 13 10 8 7 13 30 48 56 58 60 64 66 71 78 86 87 81 70 63
16 15 14 13 13 13 14 16 18 20 21 21 20 17 15 15 17 20 22 26 33 41 45 45 47 48 48 46 46 47 48 47 45 44 44 45 44 44 45 45 45 43 43 42 41 40 39 39 38 39 39 37 37 38 37 36 35 35 35 36 36 33 32 30 28 25 21 16 12 10 7 6 15 33 51 61 64 65 70 78 84 87 87 82 72 64 63
16 15 15 14 13 14 15 16 18 19 21 23 22 19 16 16 17 19 22 27 36 44 48 49 50 51 50 49 49 51 51 49 47 45 46 46 45 45 46 47 46 46 45 44 43 42 40 39 40 40 40 39 39 39 37 35 35 35 35 36 36 34 32 31 28 24 21 16 12 10 7 7 16 34 52 64 67 65 68 80 89 87 77 66 62 67 77
15 15 15 15 14 15 15 17 18 19 22 24 23 20 17 16 17 19 24 32 42 49 51 52 54 54 53 52 53 54 53 51 48 47 48 48 47 47 48 48 48 47 46 45 44 43 41 41 41 41 41 40 40 39 36 35 35 35 35 36 36 34 32 30 27 25 21 16 12 10 7 8 16 30 46 59 67 68 71 77 79 75 70 69 72 79 88
14 15 16 16 15 16 16 17 18 20 22 25 24 21 17 16 17 20 27 38 48 53 54 54 56 55 53 53 55 56 55 53 51 50 50 50 50 50 50 49 49 48 47 45 44 43 42 42 42 42 41 41 40 38 37 36 36 37 37 37 36 34 32 30 28 25 19 15 12 10 7 9 18 29 40 52 63 70 74 77 78 80 82 82 80 78 80
13 14 16 17 16 16 17 18 19 21 24 26 25 20 17 16 18 23 32 45 54 57 57 57 57 57 55 56 58 58 57 55 54 52 51 51 52 52 51 50 50 49 48 47 45 44 44 43 43 43 43 42 41 39 37 36 36 38 39 38 36 35 33 30 28 25 19 14 12 9 7 11 20 30 39 49 59 65 70 78 90 97 92 82 76 80 88
12 14 16 17 17 17 18 19 20 23 25 25 23 19 17 17 21 29 42 55 61 60 59 59 58 57 57 59 61 61 59 58 57 56 54 54 54 53 52 52 52 51 50 49 47 46 45 45 45 45 45 44 41 39 38 37 37 39 40 39 37 36 33 30 28 25 19 14 12 9 7 12 22 31 39 46 53 61 70 82 94 97 88 77 82 96 102
11 12 15 18 18 18 19 21 22 24 25 24 22 19 18 21 29 42 56 64 64 61 62 62 60 59 59 61 62 62 60 59 59 58 57 56 55 54 54 54 53 53 52 51 49 48 47 47 46 46 46 44 42 40 38 38 38 39 40 40 38 36 33 31 28 24 18 13 12 9 8 13 24 34 40 44 49 59 73 85 92 94 87 80 85 99 98
9 11 15 17 18 19 21 22 23 24 24 23 22 20 21 28 42 56 65 66 63 62 64 63 61 60 62 63 62 62 60 59 59 58 58 57 56 56 57 56 55 54 54 52 50 50 49 48 48 48 46 45 43 41 39 38 38 39 41 40 38 36 34 31 28 25 18 13 12 9 8 14 26 35 40 45 49 57 70 83 91 95 93 85 85 93 92
8 11 15 18 19 21 22 23 24 25 24 22 21 20 25 38 54 64 66 64 62 63 65 64 62 62 63 64 63 61 59 59 59 60 59 58 58 58 59 58 57 56 55 53 52 51 51 50 49 48 46 45 43 41 39 39 38 40 41 40 38 37 35 31 28 25 18 13 12 10 8 13 25 35 43 50 54 58 68 80 90 95 93 87 85 90 89
9 12 15 19 21 22 23 24 25 24 22 21 20 22 33 50 64 68 67 65 64 65 66 65 64 63 64 64 62 60 58 58 60 61 61 60 60 60 61 59 58 57 56 54 53 52 52 51 51 49 47 45 43 41 39 39 39 40 41 40 38 37 35 31 29 25 19 14 12 10 8 13 25 38 48 57 59 57 58 67 78 87 87 81 80 87 90
11 14 18 20 21 22 24 25 24 22 20 19 21 30 45 61 69 70 68 67 66 67 68 67 66 67 67 65 62 61 60 60 62 63 64 63 63 63 61 60 58 58 57 55 53 53 53 52 51 49 47 45 43 41 39 40 40 41 41 40 38 37 35 32 29 25 20 15 12 10 9 14 25 37 48 55 57 55 52 55 65 77 81 76 74 83 90
Wind_Speed
13 13 13 13 13 13 13 13 13 13 13 13 13 14 15 16 16 16 17 16 15 15 17 18 19 20 21 22 23 25 26 27 28 28 28 29 30 31 31 32 34 35 36 37 37 37 37 37 37 36 37 37 37 37 37 37 37 38 39 41 42 44 46 48 49 48 46 47 48 50 50 51 52 53 53 53 55 56 56 58 59 60 59 55 57 65 64
12 13 12 12 12 12 12 12 12 13 13 13 14 15 15 16 16 16 16 15 16 18 18 19 21 22 23 24 25 26 27 29 30 30 30 31 31 32 33 34 35 36 37 37 36 36 36 36 36 36 36 36 36 36 36 37 38 39 41 43 45 47 49 52 53 52 50 49 50 50 50 50 51 52 53 53 53 54 56 58 60 62 58 54 60 68 67
12 12 12 12 11 12 12 12 13 13 13 14 15 15 15 16 16 16 16 17 19 19 19 21 22 22 24 25 26 28 30 31 31 31 32 32 33 34 35 35 36 36 35 35 35 35 35 35 35 35 35 36 36 36 37 38 39 41 42 44 46 48 50 52 54 54 54 54 55 55 55 53 52 51 51 52 52 53 56 60 62 61 57 57 65 69 68
11 11 11 11 11 11 11 12 12 12 13 15 14 14 15 16 16 16 17 19 20 20 20 22 22 23 25 27 28 30 32 32 32 33 33 34 34 35 35 35 34 34 34 34 34 35 35 34 35 35 35 35 36 37 38 40 41 42 44 45 47 49 50 52 54 53 52 53 54 56 57 57 54 52 51 52 52 54 58 61 61 60 59 63 67 66 68
10 10 10 10 10 11 11 11 12 13 15 15 13 14 16 16 16 18 19 19 20 21 21 22 24 25 27 29 31 32 33 33 33 34 34 34 35 34 33 32 32 32 32 33 33 34 34 34 34 35 36 37 38 39 40 41 43 44 46 47 49 50 51 52 54 54 52 52 55 56 57 58 57 55 55 54 55 58 61 61 61 60 62 67 67 65 68
9 9 9 10 10 10 11 12 14 15 15 13 12 14 16 16 17 19 19 19 20 21 23 24 26 28 29 31 32 32 33 33 34 34 34 34 33 32 32 32 32 32 32 32 32 32 33 34 35 36 38 39 40 41 42 43 44 46 47 49 50 51 52 53 55 56 53 53 56 57 58 59 59 57 56 56 59 63 63 63 63 61 63 67 67 67 68
8 8 9 9 10 11 13 14 14 14 13 11 12 16 17 17 18 19 19 19 20 22 25 26 28 30 32 32 32 32 33 33 34 34 33 32 32 31 32 32 32 32 32 33 33 33 34 35 36 38 39 41 42 42 44 45 46 47 49 50 51 52 53 54 56 57 54 54 57 59 61 62 61 59 58 60 65 66 66 66 64 63 66 69 70 70 70
7 8 9 10 12 13 13 13 13 12 12 12 14 17 17 17 18 18 19 21 22 24 27 29 31 31 31 31 31 32 33 33 33 33 32 32 31 31 32 32 33 33 34 34 35 36 37 38 39 40 41 42 43 44 45 46 47 48 49 51 52 54 55 55 57 59 56 56 59 62 63 64 64 62 62 65 69 69 68 67 67 69 72 74 74 74 75
7 8 10 11 12 12 12 12 12 12 12 14 16 16 15 15 17 18 19 22 24 27 29 30 30 30 30 30 31 32 32 33 33 33 32 32 32 32 33 33 34 35 35 36 37 38 40 41 42 43 43 44 45 46 47 47 47 49 50 52 53 55 56 56 58 60 59 59 62 64 64 65 65 65 67 70 71 71 70 71 72 74 76 76 77 78 79
8 10 11 11 11 11 11 11 12 12 13 15 15 14 14 15 16 18 21 24 27 29 29 29 29 28 29 30 31 32 32 33 33 33 33 33 34 34 35 35 36 37 37 38 40 40 41 42 43 43 44 45 45 46 47 47 48 50 51 53 55 56 58 58 60 62 62 62 64 66 66 66 66 68 71 72 72 73 74 74 76 78 79 79 81 81 81
8 10 10 10 10 10 11 11 12 12 13 13 12 13 15 16 18 21 24 27 28 28 28 27 27 27 28 30 31 32 32 33 33 34 35 35 35 36 36 36 37 38 39 40 41 42 42 42 42 43 44 44 45 46 46 47 49 51 52 54 56 57 59 60 62 64 65 65 66 67 68 68 68 70 72 74 74 75 76 78 81 82 80 80 80 79 80
8 9 9 9 9 10 11 11 11 11 12 11 12 14 16 19 21 24 27 28 27 26 25 25 25 27 29 30 31 31 32 33 34 35 35 36 36 36 37 38 38 39 40 41 41 42 42 41 41 42 43 45 46 46 47 48 50 52 53 55 57 58 60 61 63 65 67 68 68 70 70 69 70 72 73 75 76 78 79 80 82 82 81 81 80 79 79
7 8 8 9 9 10 10 10 10 10 11 12 14 17 20 22 24 26 28 27 25 23 23 24 25 28 29 30 30 31 32 33 34 35 36 36 36 37 38 38 39 40 41 41 41 42 41 41 41 41 43 45 46 47 48 49 50 52 54 56 58 59 61 63 64 65 67 68 69 71 72 72 73 75 76 78 79 81 81 81 83 84 83 83 81 80 80
7 7 8 9 9 9 9 9 10 11 13 15 17 20 23 24 26 27 27 25 23 21 22 24 26 28 29 30 31 32 33 34 35 35 36 36 37 38 38 39 40 41 41 41 42 42 42 42 43 43 44 46 47 48 49 49 51 53 55 57 59 60 62 64 65 66 68 69 71 74 75 76 78 80 81 83 84 83 81 81 83 84 82 81 81 81 81
6 7 8 8 9 9 9 10 11 13 16 18 20 23 24 26 27 27 25 22 21 21 22 24 27 28 29 30 31 32 33 34 34 35 36 37 37 38 39 40 41 42 42 42 43 43 44 45 47 47 48 50 51 50 50 50 52 54 56 58 60 61 63 64 66 68 68 71 75 77 78 80 83 84 86 87 86 84 81 81 84 85 83 82 82 83 84
5 6 7 8 9 10 11 12 14 16 18 20 22 24 25 26 26 24 22 21 20 21 23 25 27 28 29 30 31 32 33 34 35 36 37 37 38 39 40 41 42 43 43 44 44 44 45 47 48 49 50 52 53 52 52 53 54 55 58 60 61 62 64 65 67 69 70 72 76 78 79 83 86 88 89 90 89 87 84 84 88 90 88 86 87 88 90
5 6 7 8 10 11 12 14 16 18 20 22 24 25 26 25 23 21 20 20 20 22 24 26 27 28 30 31 32 32 33 34 35 37 38 39 40 41 42 43 44 44 44 44 44 45 46 47 48 49 51 52 53 53 54 56 57 59 61 62 62 64 66 67 68 70 72 74 78 80 82 86 89 90 92 93 92 91 89 89 92 94 92 90 92 93 95
4 6 7 9 11 13 14 16 18 20 22 23 25 26 25 23 20 19 20 20 21 23 25 26 28 30 31 32 33 34 35 36 37 38 39 40 41 43 43 44 44 43 43 44 45 46 46 47 48 50 51 52 53 54 56 58 59 61 63 64 64 65 67 69 70 72 75 77 80 82 84 88 91 92 94 97 97 95 92 89 91 93 93 93 95 95 95
4 6 8 10 12 14 15 17 19 21 23 25 26 26 23 21 19 19 20 22 23 25 26 28 30 31 32 34 35 35 36 38 39 40 41 42 43 44 44 43 43 43 44 44 45 46 47 47 50 51 52 53 54 55 57 59 60 62 64 65 66 67 68 71 72 75 78 79 82 86 88 92 94 95 97 100 97 92 89 87 89 93 95 96 96 95 92
5 7 9 12 13 15 17 19 21 23 25 27 27 25 23 20 20 20 22 24 25 27 28 30 31 33 34 35 36 37 38 39 40 41 42 43 43 44 44 43 43 43 44 44 45 46 47 49 51 52 53 55 55 56 58 59 60 62 64 65 67 68 70 72 74 77 81 83 85 89 92 95 98 97 98 98 93 88 88 90 93 97 98 96 95 92 88
6 8 11 13 15 17 19 21 24 26 27 28 28 26 24 23 23 24 25 26 28 29 31 32 33 35 36 37 37 38 39 40 41 42 42 43 43 44 44 44 44 44 45 45 46 47 49 50 52 52 53 56 57 58 60 61 61 62 64 65 66 68 70 74 77 80 84 86 88 91 94 98 100 98 97 97 96 96 96 98 100 101 98 95 92 87 81
7 9 12 14 16 19 21 24 26 28 29 30 30 28 27 27 27 28 28 29 30 32 33 34 35 36 37 37 38 39 39 40 41 42 43 43 43 43 43 44 44 44 45 46 47 48 50 51 52 53 54 56 57 58 61 63 63 64 65 66 67 69 71 75 79 82 85 88 90 93 96 98 99 99 99 101 103 103 102 102 101 99 95 91 86 80 73
8 10 13 15 17 20 23 26 28 30 31 32 32 31 31 30 30 30 31 32 33 34 35 36 37 38 38 38 39 39 40 41 42 42 43 43 43 42 43 43 43 44 45 46 47 49 50 52 53 54 55 57 59 59 61 63 64 66 66 66 68 71 73 77 81 84 87 89 91 93 96 98 99 101 102 104 105 105 104 102 99 96 91 86 79 73 67
9 11 13 16 19 22 24 27 30 32 33 35 35 34 34 33 33 34 34 35 36 36 37 38 38 39 39 39 40 40 41 42 42 42 42 42 42 42 43 43 44 45 45 46 47 50 52 53 54 55 56 58 59 60 62 64 65 67 68 68 69 72 76 80 83 87 89 92 94 96 98 100 102 104 105 106 107 105 103 100 96 92 86 79 72 67 61
10 11 14 17 19 22 25 27 30 33 35 37 37 37 37 36 36 36 37 38 38 38 39 39 39 40 40 40 40 41 41 42 42 42 42 42 42 43 43 43 44 45 45 47 49 51 52 53 54 55 57 58 60 60 63 65 67 68 71 73 74 77 81 85 87 89 92 95 97 99 101 102 104 106 108 109 108 106 102 98 93 86 79 71 64 58 55
10 12 14 16 19 22 24 27 30 33 35 38 39 40 40 39 38 38 39 39 40 40 40 40 40 41 41 41 41 41 42 42 42 42 42 42 42 43 43 44 44 45 46 48 50 51 52 53 54 56 58 59 61 61 62 65 68 71 73 76 80 84 87 90 92 93 95 98 101 104 106 107 107 108 109 109 107 104 100 94 87 79 72 64 56 49 48
10 12 14 16 19 21 24 26 29 33 36 39 40 41 41 41 41 40 40 41 41 41 41 41 41 42 42 42 42 42 42 42 42 42 41 41 42 43 43 43 44 45 47 49 50 51 52 53 54 56 58 60 62 62 64 67 70 72 75 79 83 87 91 94 96 98 100 103 105 108 110 111 111 110 110 108 104 100 94 87 79 72 65 58 50 45 45
11 13 14 17 19 21 24 26 29 33 37 39 40 41 42 42 42 42 42 42 42 42 42 42 42 43 43 43 43 42 42 42 42 42 41 41 42 42 43 44 45 46 47 48 50 51 52 53 55 57 59 61 63 64 66 69 72 75 78 82 86 90 94 98 101 103 104 105 107 108 110 111 111 111 110 105 99 93 86 79 73 67 59 51 48 47 49
11 13 15 17 19 21 24 27 30 34 37 40 41 42 43 43 43 43 43 42 42 42 43 43 44 44 44 44 43 42 42 42 42 41 41 42 42 43 44 45 45 46 47 49 50 51 53 54 56 58 60 63 65 66 68 71 74 77 80 84 87 91 95 98 101 103 105 105 107 108 109 110 110 110 108 102 93 85 78 73 69 62 54 49 49 51 54
12 13 15 17 19 21 24 27 31 34 37 39 41 42 43 44 44 44 43 43 43 43 44 44 44 45 44 44 43 42 42 42 41 42 42 42 43 44 44 45 45 46 48 49 51 52 53 55 57 59 62 64 66 68 71 73 76 79 82 85 88 91 94 98 100 102 104 105 106 107 108 109 109 108 105 97 86 78 73 70 65 58 51 50 52 53 56
12 14 16 17 19 22 25 28 31 34 36 38 41 43 44 45 45 45 45 45 45 45 45 45 45 45 45 44 43 42 42 42 42 42 42 42 43 44 44 45 45 46 48 50 51 52 54 56 58 61 64 66 68 71 73 75 78 80 83 85 88 91 95 98 100 101 103 105 106 107 107 107 107 106 101 91 79 72 68 63 58 53 51 51 53 55 57
13 14 16 17 19 22 25 28 31 33 36 38 40 43 44 46 46 47 47 47 46 46 46 46 46 46 45 44 43 43 42 42 42 42 42 42 42 43 44 45 46 47 49 51 52 54 56 58 60 63 66 68 70 73 75 77 80 82 85 87 89 92 95 98 99 101 102 104 106 108 108 108 106 103 95 84 74 67 62 56 53 51 50 51 52 54 55
14 15 16 18 20 23 26 29 31 33 36 38 40 43 45 47 48 49 49 48 47 47 47 47 47 47 46 46 45 44 43 42 42 42 41 41 42 43 44 45 46 48 50 52 53 55 57 60 62 65 68 70 72 74 77 79 82 84 87 90 92 94 95 97 99 101 102 104 106 108 108 107 103 97 87 76 67 61 57 54 53 52 51 51 53 53 51
14 16 17 19 21 24 27 30 32 34 36 38 41 44 46 48 49 50 50 49 48 48 48 48 48 48 48 47 46 45 44 42 42 42 41 42 43 43 44 46 47 49 51 53 55 57 59 61 64 67 70 72 74 76 78 80 83 86 89 92 94 95 97 98 100 102 103 105 106 106 106 104 99 91 80 68 57 51 50 51 53 54 53 53 54 54 51
15 17 18 20 23 26 28 30 32 34 37 39 42 44 46 48 50 51 51 50 49 49 49 49 50 50 49 48 47 46 44 43 43 43 43 43 44 44 45 47 49 51 53 54 56 58 60 63 66 69 71 73 75 77 79 81 84 88 91 93 96 98 100 101 102 103 105 106 106 105 104 101 94 85 74 62 52 48 49 50 53 54 54 54 54 53 50
16 18 19 21 24 27 30 31 33 35 38 40 42 44 46 48 50 51 52 52 51 51 51 51 51 51 51 49 48 46 45 44 44 45 45 45 45 46 47 49 50 52 54 56 58 60 62 64 67 70 72 74 76 78 80 83 87 90 93 95 97 100 101 102 103 105 106 107 105 104 103 99 89 79 70 60 52 50 52 54 54 55 55 55 54 52 48
18 19 21 23 26 29 31 32 34 36 39 41 42 44 47 49 51 53 54 53 53 52 53 53 53 53 52 50 48 47 45 45 45 46 46 46 46 48 49 50 52 54 56 57 59 61 63 65 68 71 73 75 77 79 82 85 89 91 94 96 98 100 101 102 103 105 107 108 106 104 103 97 87 76 66 57 52 51 53 55 57 58 58 57 55 52 50
19 21 23 25 28 30 32 33 35 37 39 41 43 45 48 50 52 54 55 55 54 54 54 54 54 54 53 51 49 47 46 46 46 47 47 47 48 49 51 52 54 55 57 58 60 62 64 67 70 72 74 76 78 81 84 86 89 92 94 96 98 99 101 102 103 106 108 108 107 104 100 93 84 73 64 56 53 53 54 56 58 59 58 57 55 52 50
21 23 25 27 29 31 33 34 36 38 40 42 44 46 48 51 53 55 56 56 56 56 56 55 55 54 52 51 49 48 47 47 47 48 49 49 50 51 52 54 55 57 58 60 62 64 66 68 71 73 75 77 79 82 85 87 90 92 94 95 97 99 100 102 103 105 107 107 104 100 93 85 76 70 64 59 55 55 55 55 57 58 57 55 54 53 52
23 25 27 29 31 33 34 36 38 40 42 43 45 47 49 51 54 55 57 58 58 58 57 57 56 55 53 51 49 48 48 48 48 49 50 51 52 53 54 55 57 58 60 62 64 66 68 70 72 73 76 78 80 83 86 88 91 92 93 95 97 99 100 102 103 104 105 104 101 96 88 77 68 64 63 61 59 58 58 58 58 58 58 58 56 54 52
26 27 29 31 32 34 36 37 39 41 43 44 46 49 50 52 54 56 58 59 60 59 59 58 57 56 53 51 50 48 48 49 49 50 51 52 52 53 55 57 58 60 61 63 65 67 69 71 73 75 77 79 81 84 87 90 92 93 94 96 98 99 101 102 103 104 104 102 99 95 86 73 62 58 59 59 59 60 61 60 59 59 59 59 57 54 51
28 30 31 33 34 35 37 39 40 42 44 46 48 50 52 54 55 57 59 61 61 61 60 59 58 56 53 51 50 49 49 49 50 51 52 52 53 55 56 58 59 61 63 64 66 68 71 73 75 76 78 80 82 85 88 91 93 94 95 97 98 99 101 103 104 105 104 101 98 93 84 71 59 55 56 59 60 60 60 60 60 59 58 57 55 53 51
30 31 33 34 36 37 39 40 42 43 45 48 50 52 53 55 56 59 61 62 62 61 61 60 59 56 53 51 50 50 50 50 51 52 53 53 54 56 57 59 60 62 63 65 67 69 72 74 76 77 79 80 82 85 89 93 94 95 96 97 99 100 101 103 105 105 103 100 96 90 81 68 57 52 54 58 60 60 59 58 57 56 54 53 52 53 54
32 33 35 36 37 39 41 42 43 45 47 50 52 53 54 55 57 59 61 62 62 61 61 61 59 56 53 51 51 50 50 51 52 53 53 54 55 57 58 60 61 63 64 66 68 70 72 74 76 77 79 80 83 86 90 94 96 96 97 98 99 100 102 104 105 105 103 99 95 89 80 68 57 51 51 55 59 59 58 56 54 52 52 52 52 53 54
34 35 37 38 39 40 42 44 45 47 49 51 53 54 55 56 58 60 62 63 62 62 62 61 58 55 53 52 51 50 51 52 52 53 54 55 56 58 59 61 62 64 65 67 69 71 72 74 76 77 79 81 84 88 92 95 97 98 99 99 100 101 103 105 106 105 102 99 95 89 80 68 58 51 50 54 57 58 56 55 54 54 54 52 50 48 49
36 37 38 39 40 41 43 45 47 49 51 52 54 55 56 58 60 62 63 63 62 61 61 60 58 55 53 52 51 51 51 52 53 54 54 55 57 58 60 62 64 65 67 68 70 72 73 75 77 78 80 83 86 90 93 96 98 99 100 101 101 102 104 105 106 105 101 98 94 88 78 67 58 52 51 54 56 55 54 54 56 56 55 52 50 48 48
37 38 39 40 41 43 45 47 48 50 52 54 55 56 57 59 61 63 63 62 61 61 61 60 57 55 53 52 51 51 52 52 53 54 55 56 57 59 61 63 65 67 69 70 72 74 75 77 78 80 82 85 88 92 95 98 99 99 100 101 102 103 105 106 106 104 101 97 93 87 78 67 58 53 52 53 55 54 54 55 56 56 54 53 52 52 50
39 39 40 42 43 44 46 48 50 52 53 55 56 57 58 60 62 62 61 60 60 61 61 59 57 55 53 52 51 52 52 53 54 55 56 57 59 61 62 64 65 67 69 71 73 75 77 78 80 81 83 86 90 94 97 99 100 100 101 102 103 104 105 105 106 104 100 95 91 86 77 67 60 55 54 54 54 54 54 54 55 56 56 54 53 51 49
40 41 41 43 44 46 48 49 51 53 54 56 57 58 59 61 61 61 60 60 61 62 61 59 56 54 53 52 52 52 53 54 55 56 57 59 61 62 63 65 66 67 69 72 74 76 77 79 81 82 84 87 91 95 98 99 100 100 101 102 103 104 104 105 106 104 99 94 90 85 77 67 61 56 54 54 54 53 53 54 55 56 57 56 54 52 50
41 41 42 44 45 47 49 51 53 54 55 57 57 58 59 61 61 60 60 61 62 63 61 58 55 54 53 52 52 53 53 54 55 56 58 60 61 62 64 65 67 68 69 72 74 76 78 80 82 84 85 88 92 96 98 100 100 100 101 102 103 103 104 105 105 104 99 94 90 84 76 66 60 57 56 55 54 53 53 54 56 57 57 56 55 53 50
41 42 43 44 46 48 50 52 54 55 56 57 57 58 59 60 60 59 60 61 63 63 60 57 55 54 53 53 53 53 54 55 56 57 59 60 61 63 64 66 67 69 70 72 74 76 79 81 83 85 87 90 93 97 99 100 100 100 101 102 103 104 104 104 105 103 99 94 90 83 74 64 58 56 56 56 55 52 49 49 52 55 57 56 55 53 52
41 42 44 45 47 49 51 53 54 55 56 56 56 58 59 59 59 59 60 62 63 62 59 56 54 54 53 53 54 54 55 55 56 57 59 60 62 63 64 66 68 69 70 72 74 76 79 81 83 85 87 91 94 98 100 100 100 100 101 102 103 104 104 104 104 103 100 95 90 83 73 64 58 55 54 54 54 52 49 47 49 53 55 55 54 53 53
Wind_Direction
72 70 67 65 61 57 52 48 44 39 33 29 22 17 16 14 11 11 16 14 9 14 23 25 24 22 17 14 11 8 5 360 355 351 349 346 344 343 343 343 344 345 347 348 350 352 352 352 352 350 350 350 349 349 348 347 345 344 343 341 341 340 339 338 336 337 339 338 334 333 334 335 336 338 339 337 333 329 328 328 326 325 326 325 317 317 326
72 69 65 61 57 52 48 42 36 31 26 20 16 16 16 14 13 18 19 16 20 27 27 23 21 18 13 9 6 2 358 355 352 350 349 348 348 348 348 349 350 351 353 354 355 356 354 353 352 352 351 350 348 348 346 345 344 343 342 341 340 340 339 336 335 335 337 337 333 331 333 335 337 340 340 336 332 329 327 327 323 323 326 323 315 319 325
70 67 62 58 53 47 42 35 29 25 19 16 15 15 16 18 20 22 22 23 29 29 23 20 18 12 8 5 359 356 354 353 352 352 352 352 352 353 354 354 355 356 357 357 356 355 354 353 352 352 351 349 347 346 344 343 342 341 341 340 339 338 337 336 334 335 338 338 335 332 333 336 339 341 339 335 331 328 326 325 322 323 323 319 318 321 322
66 63 59 55 48 41 35 29 24 19 16 17 15 14 20 25 26 25 25 27 29 25 19 17 12 4 1 358 354 353 353 353 353 354 355 356 357 358 358 358 359 359 359 357 355 354 354 353 353 351 348 347 346 344 343 342 341 339 339 338 337 337 337 336 334 336 338 337 333 332 333 335 338 339 336 333 329 327 326 324 323 322 318 317 321 321 319
65 61 56 49 42 35 27 22 19 18 19 19 15 17 26 30 28 27 27 26 24 19 13 9 3 358 355 353 353 353 354 355 357 358 359 1 1 0 0 360 360 360 358 356 355 354 353 352 351 349 347 346 345 343 342 341 339 338 337 337 336 336 336 336 334 336 338 336 333 333 333 334 337 338 335 332 329 327 326 324 324 321 316 317 321 320 318
64 57 50 42 33 27 21 20 21 22 22 18 17 26 33 32 28 27 25 21 16 10 5 0 357 354 353 354 355 356 358 0 1 1 1 2 1 0 359 359 359 358 357 356 355 354 352 350 348 347 346 345 344 342 341 340 338 337 336 336 336 335 335 336 334 336 339 337 333 333 333 334 336 336 334 331 328 327 326 325 324 321 317 318 319 319 318
59 50 41 31 24 21 21 23 25 25 23 20 26 34 34 30 27 23 17 11 5 1 359 356 354 354 355 357 358 360 2 3 3 3 2 2 2 1 359 359 358 357 356 355 354 353 351 349 347 346 345 345 343 342 341 340 338 337 336 336 336 335 335 336 335 336 339 338 333 332 333 334 335 335 332 329 327 326 326 326 324 321 318 318 319 318 317
49 38 28 23 21 23 25 26 27 28 25 26 34 36 31 25 19 12 5 2 358 357 357 354 354 356 358 360 2 4 5 5 4 6 5 3 3 2 360 359 358 356 355 354 353 352 350 348 346 345 344 344 343 341 340 340 338 337 336 336 336 336 336 337 335 335 338 337 332 331 332 334 335 334 330 327 326 326 327 325 323 321 320 320 319 318 316
37 28 23 22 22 25 26 28 31 31 29 33 34 30 23 16 9 1 357 358 357 356 355 354 357 0 2 4 6 7 7 7 6 7 7 5 3 2 0 358 357 355 354 353 352 351 349 347 345 343 343 343 342 341 340 340 338 337 337 337 337 336 337 337 335 334 335 335 331 330 332 332 333 331 328 326 327 328 328 326 323 322 321 320 318 317 316
29 24 23 23 24 27 29 32 35 33 32 35 30 16 9 4 359 355 355 357 357 355 355 358 1 4 5 7 8 8 8 8 7 6 6 4 3 1 359 357 356 354 353 351 349 348 347 345 344 343 343 342 342 340 339 339 338 337 337 337 337 337 337 337 335 334 334 333 331 330 331 331 331 330 328 328 329 328 327 324 322 321 321 320 319 317 316
26 23 23 25 27 30 32 33 33 31 30 28 16 1 357 356 354 354 355 356 356 356 359 3 5 6 7 7 7 7 6 5 4 3 2 0 359 357 355 353 352 351 349 347 346 345 344 343 342 342 342 342 341 340 339 339 339 338 338 338 337 338 337 336 336 334 333 332 330 330 331 332 332 330 329 328 328 327 326 324 322 321 320 319 318 317 316
25 24 23 26 28 30 32 31 28 25 21 12 359 353 353 353 353 354 354 355 357 359 2 5 5 5 6 5 4 3 2 1 359 358 356 355 353 351 350 349 347 346 344 343 343 342 342 341 341 341 341 341 340 339 339 339 339 338 338 337 337 338 337 336 335 333 332 332 331 331 333 333 331 329 328 327 326 325 325 323 322 321 320 319 318 317 316
24 24 24 27 29 29 28 24 19 12 4 355 352 352 353 352 353 354 354 355 358 1 2 3 3 2 2 1 359 358 358 356 354 353 351 349 348 347 346 345 343 343 341 340 340 340 339 339 339 339 339 339 339 338 338 338 338 338 337 338 338 337 336 335 335 333 332 332 331 331 332 331 330 329 328 327 326 326 325 324 322 321 320 319 318 316 313
24 25 27 28 27 23 17 12 5 358 352 350 351 352 351 351 352 354 355 355 357 359 360 359 359 359 358 358 357 355 354 352 350 350 348 346 345 344 343 342 340 339 338 338 338 337 336 336 336 336 336 335 336 337 337 338 338 337 337 337 338 337 336 335 334 333 332 332 331 331 330 330 330 330 330 330 329 329 327 325 323 321 319 317 315 314 312
28 28 27 23 17 10 4 359 355 351 349 349 350 350 351 352 352 353 354 353 352 355 356 355 355 355 355 354 353 351 350 349 347 346 345 343 342 341 340 339 338 337 336 337 337 336 335 335 335 335 336 335 336 337 337 337 338 337 337 337 337 337 336 335 334 333 333 332 331 331 331 331 331 332 332 331 330 329 327 323 320 319 317 315 314 312 311
34 27 20 12 5 0 356 352 350 349 348 349 350 350 351 351 351 350 351 350 349 351 352 351 350 351 351 350 348 347 346 345 343 342 341 340 339 338 338 338 336 336 336 336 336 335 335 336 336 336 337 337 338 338 338 337 337 337 337 337 338 336 335 334 334 334 333 332 332 332 331 331 331 332 331 331 329 327 324 320 318 318 316 315 314 313 314
29 17 7 0 355 352 350 348 348 348 349 350 350 351 351 349 349 349 348 347 346 347 348 347 347 347 347 345 343 342 342 341 340 339 338 337 337 337 337 336 336 336 336 336 336 335 335 336 336 337 338 338 338 338 338 338 338 338 338 338 338 336 335 335 334 334 334 333 333 333 332 331 332 332 331 329 327 325 323 320 318 318 318 317 317 318 319
14 1 354 350 347 347 346 347 348 349 350 351 352 351 349 347 347 347 345 344 344 344 344 345 344 344 343 340 339 339 339 338 337 336 336 336 336 336 336 336 336 336 337 336 336 336 336 336 336 337 338 338 338 339 339 340 340 339 338 338 337 336 335 335 334 334 335 335 334 334 333 332 332 331 328 327 326 324 323 320 319 319 320 321 322 322 323
354 346 343 341 342 344 345 346 347 348 351 353 352 350 348 346 346 345 343 342 342 342 343 344 343 341 340 338 337 337 337 336 336 335 335 335 335 336 336 336 336 337 337 336 336 336 337 337 337 338 338 338 339 340 340 341 340 339 338 337 337 336 336 336 335 335 336 336 335 334 333 332 332 330 327 326 326 325 322 320 320 321 323 323 324 324 324
336 333 333 336 340 343 344 345 346 349 352 353 352 350 349 349 348 345 342 341 342 342 343 343 341 340 339 338 337 337 337 336 335 335 335 336 336 336 336 336 337 337 337 337 337 337 337 338 338 339 339 339 340 340 340 340 340 338 337 337 337 336 336 336 336 336 337 337 336 335 333 332 331 329 328 327 326 324 322 321 322 324 325 325 324 324 324
320 324 329 335 340 342 343 344 347 350 352 352 352 352 353 352 349 345 343 342 342 343 343 341 340 340 340 339 339 339 338 337 337 337 337 337 336 337 337 337 338 338 338 338 338 338 338 339 339 340 340 340 341 340 338 339 339 338 337 336 337 337 336 336 337 338 338 338 337 335 333 331 330 329 327 325 324 323 323 323 324 325 325 325 325 325 325
311 319 327 336 341 343 344 345 348 350 351 352 352 354 354 352 349 346 343 343 342 342 341 340 340 341 341 341 340 340 339 338 338 338 338 338 338 338 338 338 339 339 339 339 339 339 339 339 340 341 340 340 341 340 338 338 338 338 338 337 337 337 337 337 338 338 338 337 336 334 332 330 328 326 324 322 322 322 323 324 325 325 326 326 326 326 327
306 318 329 337 342 344 345 346 349 350 350 351 352 353 353 350 347 345 343 342 341 340 340 340 340 340 341 341 341 341 340 339 339 339 339 339 339 339 339 339 339 339 339 339 339 338 339 340 340 341 340 340 341 340 338 337 337 337 338 338 337 337 338 338 338 337 337 335 334 333 332 330 327 325 324 323 323 324 325 326 326 327 327 328 328 328 328
305 319 331 340 343 344 346 347 349 350 350 350 351 351 351 349 346 345 344 343 341 341 340 340 340 341 341 342 341 340 340 339 339 340 340 340 340 340 340 339 339 339 339 339 339 339 340 340 340 341 341 341 341 339 337 337 337 337 337 338 338 338 338 337 337 336 335 335 333 332 332 331 329 327 325 325 326 327 328 328 328 328 328 329 330 329 329
306 322 334 340 343 345 346 348 349 349 349 349 349 349 349 348 346 345 344 343 342 341 341 341 341 341 341 341 340 340 339 339 340 340 340 340 341 340 340 340 340 340 339 339 339 340 341 340 340 340 340 340 340 338 337 337 337 337 337 337 338 339 338 337 337 336 336 335 333 332 333 333 331 329 327 327 328 329 329 329 328 328 329 330 331 331 331
307 324 334 339 342 344 347 348 349 348 347 348 349 348 348 347 346 344 343 342 342 342 341 341 341 341 341 341 340 339 339 340 340 340 341 341 341 341 340 339 339 339 339 340 340 340 340 340 340 340 340 340 339 338 338 338 338 338 338 338 339 339 339 338 337 336 336 336 334 333 333 334 333 330 328 328 329 330 330 329 329 330 332 332 333 333 333
307 323 332 336 340 344 346 348 347 346 346 347 348 347 347 347 345 344 343 342 342 342 341 341 342 342 341 340 340 339 339 339 340 340 341 341 341 340 339 339 339 340 340 340 340 340 340 340 340 340 340 339 339 338 338 339 339 339 340 340 340 340 339 338 337 337 338 337 336 333 332 331 331 330 329 330 331 331 331 330 330 332 335 335 334 335 335
308 322 329 334 339 344 346 346 345 344 344 346 347 347 347 346 345 345 344 342 341 342 342 342 343 342 342 341 340 340 339 339 339 340 340 341 340 339 339 339 340 341 341 339 339 340 340 340 340 339 339 339 339 339 339 339 340 340 341 341 340 340 340 339 339 339 338 337 335 332 330 330 330 329 329 331 332 332 331 331 333 335 337 337 336 336 337
310 321 328 334 340 344 345 344 343 343 343 345 345 346 346 346 345 345 344 342 342 342 342 343 343 343 343 342 341 340 339 339 340 340 340 341 340 339 340 341 341 341 340 339 339 340 340 340 339 339 339 339 340 340 340 340 341 342 342 341 341 341 340 340 339 338 338 336 334 332 331 329 329 329 330 332 334 333 333 333 335 337 340 340 339 339 339
310 319 327 335 341 343 343 342 341 342 343 344 344 345 346 346 345 344 344 343 343 343 343 343 344 344 343 342 341 340 339 339 340 340 340 341 341 340 340 340 340 339 339 339 339 340 340 340 339 339 340 340 340 340 341 341 342 342 342 341 341 340 340 340 339 339 338 336 334 332 331 330 329 329 331 334 336 335 334 334 337 340 344 343 341 341 341
308 317 326 335 340 341 340 339 340 341 341 342 343 344 345 345 345 345 344 344 344 344 344 344 344 344 343 342 341 340 340 340 340 341 341 342 341 339 339 339 339 339 339 339 339 339 339 339 339 340 340 340 340 340 341 341 342 342 341 341 340 340 340 340 340 340 339 336 333 332 331 331 330 331 333 336 337 336 335 337 340 343 345 344 343 342 342
306 315 325 333 336 336 336 336 337 338 340 341 343 343 344 344 345 345 345 344 344 345 345 345 345 344 343 342 341 340 340 341 341 341 341 341 340 338 338 339 339 339 339 339 339 339 339 339 340 340 340 340 340 341 341 342 342 342 341 341 340 340 340 341 341 341 340 337 334 332 332 333 333 333 335 338 338 337 338 340 343 345 345 345 344 343 342
304 313 322 329 331 331 332 333 334 336 338 339 341 342 343 344 345 346 345 345 345 345 345 345 344 344 343 342 341 341 341 341 341 341 340 340 340 338 338 339 339 339 339 339 339 339 339 340 340 341 340 340 340 341 342 342 342 342 341 341 340 340 341 342 342 342 341 339 337 335 333 333 333 334 336 339 339 338 340 342 343 344 345 345 345 344 343
302 311 319 323 325 327 328 329 331 333 335 337 339 341 343 345 346 346 346 345 345 344 344 344 344 343 343 342 341 341 341 340 341 341 340 340 340 339 339 339 339 339 339 338 339 339 339 340 340 341 340 340 341 342 343 343 342 342 341 341 340 340 341 342 343 343 343 342 340 337 334 333 333 334 337 340 341 341 342 343 343 343 345 346 345 344 343
301 309 315 319 322 323 324 325 328 331 333 336 338 341 342 344 345 345 346 346 345 344 344 343 343 343 343 342 341 340 340 340 340 341 341 340 339 339 339 339 339 339 339 339 339 339 340 340 341 341 341 341 342 342 343 342 343 342 341 341 340 340 341 343 344 344 344 343 341 338 336 335 334 335 338 342 344 343 343 344 344 344 344 345 345 344 343
299 306 311 315 318 319 320 323 326 329 332 335 338 340 342 343 344 345 345 345 344 343 343 342 342 342 342 342 341 340 340 340 340 341 341 340 339 339 339 339 339 339 339 339 339 340 340 341 341 341 341 342 342 343 343 343 343 343 342 341 341 342 342 342 343 343 344 343 341 340 339 338 336 337 340 344 346 346 344 344 344 344 345 345 345 343 342
297 303 308 312 314 315 318 322 326 329 331 334 337 339 341 341 343 344 344 344 344 343 342 342 342 342 342 341 341 340 340 340 340 340 340 339 338 338 339 339 339 339 339 339 340 340 340 341 341 341 342 342 342 343 343 344 344 344 343 343 342 342 342 342 343 343 343 343 341 341 341 340 339 339 341 344 347 347 346 345 344 344 345 345 345 344 342
296 301 305 307 310 313 317 321 324 327 330 333 336 338 339 340 342 343 343 343 343 342 341 341 341 342 341 340 339 340 340 340 339 339 339 338 338 338 338 339 339 339 339 339 340 340 341 341 341 342 342 343 343 343 344 344 345 344 344 343 342 342 343 343 343 343 343 342 341 341 341 341 340 340 341 344 347 347 346 346 345 344 344 344 344 344 342
294 298 300 303 308 313 317 320 323 326 330 333 335 336 338 339 340 341 342 342 342 341 341 341 341 341 340 338 338 338 340 340 339 338 337 338 338 338 338 339 339 339 339 339 340 341 341 341 341 342 343 343 344 344 344 345 345 344 343 343 342 342 343 344 344 344 343 343 342 340 340 340 340 339 340 343 345 346 346 346 345 344 343 344 344 342 340
291 293 297 302 307 312 317 320 323 326 329 332 333 334 336 338 339 339 340 340 340 340 340 340 340 339 339 338 337 337 338 339 338 337 337 337 337 337 337 338 339 338 339 340 340 341 341 341 341 342 343 344 344 344 344 345 345 344 343 342 342 343 344 346 346 345 344 343 343 341 341 341 340 338 339 341 343 344 345 345 344 343 343 342 341 340 338
288 292 296 302 307 312 317 320 323 325 327 330 331 333 335 336 337 338 339 339 339 339 339 339 339 338 337 336 336 337 337 338 337 336 336 336 337 337 337 338 338 338 339 340 341 341 341 341 341 342 344 344 344 344 344 345 344 343 342 342 343 344 345 347 347 346 345 344 344 343 342 342 341 339 339 340 341 342 342 342 343 343 341 339 337 337 338
287 291 296 301 307 312 316 319 321 323 326 328 330 332 334 335 335 336 337 338 338 338 337 337 337 337 335 335 335 336 337 337 336 335 335 335 336 337 337 337 338 339 340 341 341 341 341 341 341 343 344 344 344 343 344 344 343 342 343 343 343 344 346 347 348 347 346 345 344 344 343 343 343 341 339 340 340 341 341 340 340 340 338 335 335 337 339
288 292 296 301 307 311 314 317 320 322 325 327 329 331 332 333 334 335 336 336 337 336 336 336 336 335 334 334 334 335 336 336 335 334 334 334 335 336 337 337 338 339 340 340 341 341 341 341 342 343 344 344 343 343 344 343 342 342 343 343 343 345 347 348 348 348 347 346 345 344 344 344 344 342 341 340 339 339 340 339 338 336 336 336 338 339 339
289 293 296 301 305 309 312 316 319 321 324 326 327 329 330 332 333 334 334 335 335 335 335 335 335 334 333 333 334 334 334 334 333 333 333 334 335 336 336 337 338 339 339 340 340 340 341 341 341 342 343 343 343 344 344 343 341 342 343 344 344 346 347 348 348 348 347 346 345 345 344 345 344 343 342 341 339 338 338 337 336 336 337 339 340 338 336
290 293 296 300 305 309 312 316 318 320 322 324 326 327 329 331 331 332 333 333 334 334 334 334 334 333 332 332 333 333 333 332 332 332 333 334 335 335 336 336 337 338 338 339 340 340 340 340 341 342 342 342 343 344 344 343 341 342 343 344 345 346 348 349 349 348 347 346 346 345 344 345 344 344 343 342 339 337 336 336 337 338 338 338 337 337 336
291 294 296 300 305 309 312 315 317 319 321 323 325 327 328 329 330 331 332 332 332 333 333 333 333 331 331 331 332 332 332 331 330 331 332 333 334 335 335 336 337 337 338 339 339 340 340 340 341 342 342 342 343 345 344 342 342 342 343 344 345 347 348 349 349 349 347 347 346 345 344 344 343 343 343 342 339 337 338 339 340 339 337 337 339 340 340
291 294 296 300 304 308 311 314 316 318 320 322 324 326 327 328 329 329 330 330 331 332 333 332 331 330 330 331 331 331 330 330 330 330 331 333 334 335 336 337 337 337 338 339 339 339 339 340 341 342 342 342 344 345 344 342 342 342 343 344 346 347 349 349 350 349 348 347 346 345 344 343 342 343 343 342 340 340 340 341 340 339 338 340 342 343 341
292 295 297 300 304 307 310 313 315 318 320 322 324 325 326 327 328 329 329 330 331 332 332 331 330 329 329 330 330 330 329 329 329 330 331 332 334 335 336 336 337 337 338 339 339 339 339 339 340 342 342 343 344 345 344 342 342 343 343 344 346 348 349 349 350 349 348 347 345 345 344 342 342 342 342 341 341 342 341 340 340 340 340 341 342 342 341
293 295 298 300 303 306 310 313 315 317 319 321 323 324 325 326 327 328 329 330 330 331 331 330 328 328 328 329 329 329 328 327 328 329 331 332 334 334 335 336 336 337 338 338 338 338 338 339 340 342 343 343 344 344 343 342 342 343 344 345 346 348 349 349 350 350 349 347 345 345 344 342 340 340 341 340 341 342 341 340 341 342 340 340 341 342 342
292 295 297 300 303 306 310 312 314 317 319 320 322 323 324 326 327 328 328 329 330 330 329 328 327 327 327 328 328 327 327 327 328 329 331 332 333 334 334 335 335 337 338 338 337 337 338 338 339 342 343 344 344 344 342 341 342 343 344 345 346 348 349 349 350 350 349 347 345 345 344 341 339 339 339 340 341 342 341 341 342 342 340 339 340 340 341
292 295 297 300 303 306 309 311 314 316 318 320 321 323 324 325 326 326 327 328 329 329 328 327 326 326 326 326 326 326 326 327 328 329 330 332 332 333 334 334 335 336 337 337 337 337 337 338 340 342 343 344 344 343 342 341 342 344 345 346 347 348 349 350 350 350 350 347 345 344 343 341 338 338 339 339 339 340 341 341 342 341 340 339 339 339 340
293 296 298 300 303 305 308 311 313 315 317 319 320 321 322 323 324 325 326 327 327 327 326 325 325 325 325 325 325 325 326 327 328 329 330 331 331 332 333 334 335 336 336 336 336 336 337 338 340 342 343 344 344 343 341 341 342 344 345 346 347 348 349 349 350 350 350 348 345 344 343 341 338 337 337 337 338 339 340 341 342 341 340 339 338 339 339